STARLINK-2611, 48364

Orbit data source: Space-Track

STARLINK-2611, 48364 is a payload satellite owned by SpaceX/Seattle (US) in LEO that was launched on Tue, 04 May 2021 UTC via an FALCON 9 launch vehicle from the Air Force Eastern Test Range (AFETR). Payload-class satellites include a variety of spacecraft equipped with specific instruments for various scientific and technological missions. These include communications satellites like Starlink; space stations such as the ISS; scientific satellites like the Hubble; Earth observation satellites from companies like Planet Labs, Umbra, and HawkEye 360; GPS; miniature CubeSats for education and research; and military/defense satellites.

Loading next visibility...
Identifier
48364, 2021-038M
Orbit
LEO
Country
Flag of USUS
Related business
Manufacturer
SpaceX/Seattle
Mission
Operational Commercial Communications
Bus & Motor
STARLINK, Unknown motor
Mass
260 kg wet, ~248 kg dry
Launch date (UTC)
2021-05-04 (5 years ago)
Launch vehicle
FALCON 9
Launch site
Air Force Eastern Test Range (AFETR)
Object type
Payload
Rocket body
Debris
Shape & HBR
Box + 1 Pan, 10.1 m
Radar Cross Section
13.562 m², Large (>1 m²)

Expand to show TLE details & history
Last TLE update: 2 days ago

TLE from 2 days ago
0 STARLINK-2611
1 48364U 21038M   26171.44576013  .00001600  00000-0  63302-4 0  9991
2 48364  53.1578 229.7570 0001161  90.0260 270.0874 15.31704503282979
Epoch: 2026-06-20T10:41Z
TLE epoch observation values (Epoch: 2026-06-20T10:41:53.675Z)
Latitude
-0.00004°
Longitude
160.62305°
Altitude
471.626 km
Speed
7.631 km/s
True Right ascension
15h 19m 01s
True Declination
0° 00' 00"
Sunlit
Object was in full shadow at epoch
Visualization orbit readout
Latitude
Unknown
Longitude
Unknown
Altitude
Unknown
Speed
Unknown
Apparent Right ascension
Unknown
Apparent Declination
Unknown
Sunlit
N/A
Visualization observer readout
Local Sidereal Time
21:31:03
Azimuth
Unknown
Elevation
Unknown
Doppler factor
Unknown
Orbital elements
Apogee altitude
471.779 km
Perigee altitude
470.188 km
Semi-major axis
6,849.121 km
Eccentricity
0.00012
Inclination
53.1578°
RAAN
229.757°
Arg. of periapsis
90.026°
True anomaly
270.0741°
Mean anomaly
270.0874°
Eccentric anomaly
270.08075°
Mean motion
3.82905 °/min
Orbital period
94.02 mins
BSTAR
0.000063302
Loading maneuver chart data...
Computing Atmospheric mass density...

Documentation

Showing up to 5 results
|